This documentation is for Dovecot v1.x, see wiki2 for v2.x documentation.

[Show "Revision History"] [Show "General Page Infos"] [Show "Page hits and edits"]

Revision History

Showing page edit history entries from 248 to 347 out of 397 entries total. (5 | 10 | 25 | 50 | 100 | 200 items per page)

# Date Size Editor Comment Action
336 2009-03-16 23:37:55 4858 to previous TimoSirainen Revert to revision 334. view
335 2009-03-16 23:14:30 213 to previous 89-149-208-29 LADVtI <a href="http://byusqajsilyh.com/">byusqajsilyh</a>, [url=http://lmccpcszjvul.com/]lmccpcszjvul[/url], [link=http://iukihqpoynkp.com/]iukihqpoynkp[/link], http://ekpvizbgptmu.com/ view
334 2009-03-15 22:35:08 4858 to previous localhost converted to 1.6 markup view
- 2009-03-08 18:58:48 2284 - TimoSirainen ATTDEL: package.zip view get
- 2009-03-08 18:58:44 0 - TimoSirainen ATTDEL: velocidades.txt
333 2009-01-13 11:03:15 4785 to previous netblock-75-79-60-68   view
- 2008-12-05 14:55:00 0 - 200 ATTNEW: velocidades.txt
332 2008-11-26 19:40:26 4787 to previous TimoSirainen Revert to revision 330. view
331 2008-11-26 18:37:46 4794 to previous rrcs-71-40-184-152   view
330 2008-10-08 15:24:53 4787 to previous mail   view
329 2008-10-08 15:24:21 4787 to previous mail   view
328 2008-10-06 09:07:41 4785 to previous TimoSirainen The german translation is pretty dead currently, removed the highly visible link at least for now.. view
327 2008-09-19 04:31:33 4810 to previous TimoSirainen Revert to revision 325. view
326 2008-09-18 22:05:37 4817 to previous c-76-112-7-105   view
325 2008-09-02 05:10:43 4810 to previous TimoSirainen New versions come and go, but front page should be pretty static.. view
324 2008-09-01 23:34:33 4869 to previous ChrisMadsen Link to 1.1 upgrade instructions view
- 2008-06-06 12:45:58 2284 - adsl-ull-222-17 ATTNEW: package.zip view get
- 2008-06-03 12:04:01 0 - TimoSirainen ATTDEL: Install_Default_zivah_licenses.sql
- 2008-06-02 09:53:07 0 - dsl-TN-static-137 ATTNEW: Install_Default_zivah_licenses.sql
- 2008-06-02 09:52:08 0 - dsl-TN-static-137 ATTNEW: Install_Default_zivah_licenses.sql
- 2008-04-12 20:25:38 0 - TimoSirainen ATTDEL: sieve-auth-command.pl
- 2008-04-12 20:25:35 2284 - TimoSirainen ATTDEL: package.zip view get
- 2008-04-12 19:26:59 0 - Stephan Bosch ATTNEW: sieve-auth-command.pl
323 2008-03-07 22:47:01 4812 to previous TimoSirainen Revert to revision 321. view
322 2008-03-07 17:42:14 4812 to previous 190   view
321 2008-02-15 13:17:16 4812 to previous TimoSirainen   view
320 2008-01-30 21:23:09 4733 to previous swlan-hou   view
319 2008-01-10 21:04:26 4741 to previous ouzoud   view
318 2008-01-10 21:02:21 4904 to previous ouzoud   view
317 2007-12-29 02:50:11 4737 to previous TimoSirainen   view
316 2007-12-12 15:04:57 4748 to previous www   view
315 2007-12-12 15:04:27 4749 to previous www   view
314 2007-11-29 12:05:35 4748 to previous TimoSirainen Revert to revision 311. view
313 2007-11-29 11:40:06 4716 to previous 220   view
312 2007-11-29 11:39:20 4758 to previous 220   view
311 2007-11-16 22:31:29 4748 to previous TimoSirainen Revert to revision 309. view
310 2007-11-16 22:26:54 4729 to previous host72-116-dynamic   view
309 2007-11-07 12:07:32 4748 to previous TimoSirainen Revert to revision 307. view
308 2007-11-07 07:52:59 4803 to previous sherri   view
307 2007-09-30 15:45:48 4748 to previous JenniferGabriel   view
306 2007-09-30 15:42:16 4731 to previous JenniferGabriel   view
305 2007-08-09 16:18:57 4712 to previous TimoSirainen   view
304 2007-08-06 15:26:05 4704 to previous danielwatts adding caching section view
303 2007-06-12 23:47:17 4665 to previous TimoSirainen   view
302 2007-06-12 20:11:52 4666 to previous TimoSirainen   view
301 2007-06-11 23:50:56 5717 to previous lns-bzn-33-82-252-12-240   view
300 2007-05-23 13:33:10 5707 to previous TimoSirainen   view
299 2007-05-23 12:19:43 5666 to previous p508246C6 added www. to backlink, it doesn't works without view
298 2007-05-21 22:37:19 5662 to previous TimoSirainen   view
297 2007-05-09 08:00:57 5607 to previous TimoSirainen   view
296 2007-04-14 06:55:24 5549 to previous MatthiasAndree Revert to revision 286. view
295 2007-04-13 20:34:22 5887 to previous Romirin   view
294 2007-04-13 20:31:54 5857 to previous Romirin   view
293 2007-04-13 20:29:46 5825 to previous Romirin   view
292 2007-04-13 20:27:31 5806 to previous Romirin   view
291 2007-04-13 20:23:54 5733 to previous Romirin   view
290 2007-04-13 20:21:10 5719 to previous Romirin   view
289 2007-04-13 20:18:28 5679 to previous Romirin   view
288 2007-04-13 20:16:07 5621 to previous Romirin   view
287 2007-04-13 20:13:53 5570 to previous Romirin   view
- 2007-04-04 13:07:04 2284 - 213 ATTNEW: package.zip view get
286 2007-03-19 20:45:49 5549 to previous TimoSirainen   view
285 2007-03-19 14:54:39 5506 to previous TimoSirainen   view
284 2007-03-19 14:35:16 5427 to previous TimoSirainen   view
283 2007-03-19 03:23:11 5372 to previous TimoSirainen   view
282 2007-03-19 03:20:31 5294 to previous TimoSirainen   view
281 2007-03-19 03:19:22 5270 to previous TimoSirainen   view
280 2007-03-19 02:24:11 5264 to previous TimoSirainen   view
279 2007-03-19 02:12:53 5260 to previous TimoSirainen IMAP has mailboxes, not folders. :) view
278 2007-03-19 01:02:14 5256 to previous TimoSirainen   view
277 2007-03-19 00:58:55 5253 to previous TimoSirainen   view
276 2007-03-19 00:13:44 5300 to previous TimoSirainen   view
275 2007-03-18 20:30:02 5300 to previous TimoSirainen   view
274 2007-03-18 19:35:38 5288 to previous TimoSirainen   view
273 2007-03-17 12:39:14 5222 to previous TimoSirainen   view
272 2007-03-16 14:35:33 5166 to previous TimoSirainen   view
271 2007-03-13 23:43:32 5257 to previous troyengel add thunderbird debug stublink view
270 2007-03-07 17:20:56 5192 to previous TimoSirainen   view
269 2007-03-06 15:41:05 5137 to previous TimoSirainen   view
268 2007-03-01 15:07:37 5119 to previous skdovecot   view
267 2007-03-01 12:11:26 5050 to previous TimoSirainen   view
266 2007-02-16 21:05:44 4920 to previous TimoSirainen   view
265 2007-01-18 14:32:48 4875 to previous TimoSirainen   view
264 2006-12-22 21:25:05 4820 to previous TimoSirainen   view
263 2006-12-22 21:23:43 4814 to previous TimoSirainen   view
262 2006-12-14 14:48:45 4773 to previous LeventeFarkas   view
261 2006-12-14 13:45:13 4759 to previous LeventeFarkas   view
260 2006-12-11 13:23:29 4633 to previous TimoSirainen   view
259 2006-12-11 05:22:48 4633 to previous James Turnbull   view
258 2006-11-05 19:13:11 4764 to previous TimoSirainen   view
257 2006-11-05 19:00:36 4655 to previous TimoSirainen I think this is good enough for a new front page now view
256 2006-11-05 16:20:00 3115 to previous TimoSirainen   view
255 2006-10-18 09:13:14 3099 to previous James Turnbull   view
254 2006-10-18 09:11:37 3094 to previous James Turnbull   view
253 2006-09-22 15:22:17 3048 to previous TimoSirainen   view
252 2006-07-13 09:38:12 2962 to previous JensNissen   view
251 2006-07-01 18:12:57 2936 to previous TimoSirainen   view
250 2006-06-17 14:52:17 2884 to previous TimoSirainen   view
249 2006-05-18 14:26:14 2855 to previous MatthiasAndree   view
248 2006-05-18 13:12:15 2797 to previous MatthiasAndree add a hr between TOC and Overview view